sat.trackr.live / text

‹ back to catalog

QIANFAN-18

NORAD 60396 · 2024-140T

PAYLOAD ACTIVE UNKNOWN

§ Identity

Operator
Country
PRC
Launch date
2024-08-06
Launch site
TAISC
Launch vehicle
Mass (kg)
RCS (m²)

External: N2YO · Heavens-Above · Gunter

§ Orbital elements

Epoch: 2026-09-22T21:25:42.057696Z

Period
106.59 min
Inclination
88.9670°
Eccentricity
0.0016357
Mean motion
13.51020984 rev/d
Perigee alt
1,056.3 km
Apogee alt
1,080.7 km
Semi-major
7,446.6 km
B*
-7.1662e-8
RAAN
269.4795°
Arg perigee
88.1922°
Mean anomaly
272.1103°
Rev number
10,589

§ Raw data

QIANFAN-181 60396U 24140T   26265.89284789  .00000012  00000+0 -71662-7 0  99932 60396  88.9670 269.4795 0016357  88.1922 272.1103 13.51020984105890

JSON: /api/v1/satellites/60396 · /tle

For live sub-satellite position, see the globe view (requires WebGL).

§ Visibility from observer

Set your observer location to see the next 7 days of passes ≥ 10°. The values pass through the URL so the page stays shareable.

No JS? Fill the form by hand. The geolocation button needs JavaScript.